The Dalles, WA

3:20 PM PST on December 14, 2017 (GMT -0800)
Columbia Gorge Regional-The Dalles

Weather History for KDLS - February, 2014

Change the Weather History Date:

Wednesday, February 26, 2014

  Actual Average Record
Temperature  
Mean Temperature 39 °F -  
Max Temperature 43 °F 51 °F 66 °F (1968)
Min Temperature 35 °F 33 °F 10 °F (2011)
Degree Days  
Heating Degree Days 26    
Moisture  
Dew Point 30 °F    
Average Humidity 70    
Maximum Humidity 82    
Minimum Humidity 58    
Precipitation  
Precipitation 0.00 in - - ()
Sea Level Pressure  
Sea Level Pressure 30.09 in    
Wind  
Wind Speed 3 mph (East)    
Max Wind Speed 9 mph    
Max Gust Speed -    
Visibility 10 miles    
Events      
Averages and records for this station are not official NWS values.
T = Trace of Precipitation, MM = Missing Value Source: NWS Daily Summary

Daily Weather History Graph

Daily Weather History Graph

Search for Another Location

Airport or City:

Trip Planner

Search our weather history database for the weather conditions in past years. The results will help you decide how hot, cold, wet, or windy it might be!

Date:

Astronomy

Feb. 26, 2014 Rise Set
Actual Time 6:48 AM PST 5:47 PM PST
Civil Twilight 6:18 AM PST 6:17 PM PST
Nautical Twilight 5:44 AM PST 6:51 PM PST
Astronomical Twilight 5:09 AM PST 7:26 PM PST
Moon 4:45 AM PST (2/26) 3:02 PM PST (2/26)
Length of Visible Light 11h 59m
Length of Day
10h 59m
Waning Crescent, 9% of the Moon is Illuminated
Feb 26
Waning Crescent
Mar 1
New
Mar 8
First Quarter
Mar 16
Full
Mar 23
Last Quarter

Hourly Weather History & Observations

Time (PST) Temp. Windchill Dew Point Humidity Pressure Visibility Wind Dir Wind Speed Gust Speed Precip Events Conditions
12:53 AM 37.0 °F - 28.0 °F 70% 30.26 in 10.0 mi Calm Calm - N/A   Overcast
1:53 AM 36.0 °F - 28.9 °F 76% 30.25 in 10.0 mi Calm Calm - N/A   Overcast
2:53 AM 35.1 °F - 28.9 °F 78% 30.24 in 10.0 mi Calm Calm - N/A   Overcast
3:53 AM 36.0 °F 33.3 °F 28.9 °F 76% 30.22 in 10.0 mi East 3.5 mph - N/A   Overcast
4:53 AM 35.1 °F - 30.0 °F 82% 30.22 in 10.0 mi Calm Calm - N/A   Overcast
5:53 AM 36.0 °F - 30.0 °F 79% 30.21 in 10.0 mi Calm Calm - N/A   Overcast
6:53 AM 35.1 °F 31.0 °F 30.0 °F 82% 30.20 in 10.0 mi East 4.6 mph - N/A   Overcast
7:53 AM 36.0 °F 31.1 °F 30.0 °F 79% 30.20 in 10.0 mi East 5.8 mph - N/A   Overcast
8:53 AM 37.0 °F 32.4 °F 30.0 °F 76% 30.19 in 10.0 mi ENE 5.8 mph - N/A   Overcast
9:53 AM 37.9 °F 32.7 °F 30.0 °F 73% 30.18 in 10.0 mi ENE 6.9 mph - N/A   Overcast
10:53 AM 39.9 °F 35.1 °F 28.9 °F 65% 30.16 in 10.0 mi ENE 6.9 mph - N/A   Overcast
11:53 AM 41.0 °F 36.4 °F 28.9 °F 62% 30.14 in 10.0 mi East 6.9 mph - N/A   Overcast
12:53 PM 43.0 °F 39.5 °F 28.9 °F 58% 30.10 in 10.0 mi ENE 5.8 mph - N/A   Overcast
1:53 PM 43.0 °F 41.3 °F 28.9 °F 58% 30.07 in 10.0 mi ENE 3.5 mph - N/A   Overcast
2:53 PM 43.0 °F 38.8 °F 28.9 °F 58% 30.04 in 10.0 mi NE 6.9 mph - N/A   Mostly Cloudy
3:53 PM 43.0 °F 38.2 °F 30.0 °F 60% 30.01 in 10.0 mi ENE 8.1 mph - N/A   Overcast
4:53 PM 42.1 °F 39.2 °F 30.0 °F 62% 29.99 in 10.0 mi ENE 4.6 mph - N/A   Overcast
5:53 PM 42.1 °F 38.4 °F 28.9 °F 60% 29.98 in 10.0 mi ESE 5.8 mph - N/A   Overcast
6:53 PM 41.0 °F 38.0 °F 28.9 °F 62% 29.97 in 10.0 mi East 4.6 mph - N/A   Overcast
7:53 PM 39.9 °F 37.8 °F 30.0 °F 68% 29.95 in 10.0 mi ENE 3.5 mph - N/A   Overcast
8:53 PM 39.0 °F 36.8 °F 30.0 °F 70% 29.94 in 10.0 mi East 3.5 mph - N/A   Mostly Cloudy
9:53 PM 39.0 °F 32.8 °F 30.0 °F 70% 29.93 in 10.0 mi East 9.2 mph - N/A   Mostly Cloudy
10:53 PM 39.0 °F 34.0 °F 30.0 °F 70% 29.90 in 10.0 mi East 6.9 mph - N/A   Overcast
11:53 PM 37.9 °F 33.5 °F 32.0 °F 79% 29.88 in 10.0 mi East 5.8 mph - N/A   Overcast